Flag for Poland Weather past 2 weeks in Zabrze, Poland

43 °F

Scattered clouds.

Feels Like: 36 °F
Forecast: 39 / 46 °F
Wind: 14 mph from West

Location: Katowice Airport

Current Time: Nov 30, 2015 at 1:46:29 PM

Latest Report: Nov 30, 2015 at 1:00 PM

Visibility: N/A

Pressure: 29.86 "Hg

Humidity: 81%

Dew point: 37 °F

Location of ZabrzeLocation

Historic Weather in Zabrze — Graph


Zabrze temperature yesterday

Maximum temperature yesterday: 39 °F (at 11:30 AM)
Minimum temperature yesterday: 30 °F (at 7:30 AM)
Average temperature yesterday: 36 °F

Past Weeks' High & Low Weather Summary

High55 °F (Nov 18, 8:00 AM)100% (Nov 15, 6:30 PM)30.27 "Hg (Nov 15, 6:30 PM)
Low19 °F (Nov 27, 3:00 AM)56% (Nov 25, 2:00 PM)29.36 "Hg (Nov 21, 12:00 AM)
Average38 °F87%29.83 "Hg
* Reported Nov 15 1:00 PM — Nov 30 1:00 PM, Zabrze, Weather by CustomWeather, © 2015

Note: Actual official high and low records may vary slightly from our data, if they occured in-between our weather recording intervals... More about our weather records


Zabrze weather history for previous 24 hours

Time TempWeatherWind HumidityBarometerVisibility
1:00 PM
Mon, Nov 30
43 °FScattered clouds.14 mph81%29.86 "HgN/A
12:30 PM41 °FScattered clouds.14 mph81%29.89 "HgN/A
12:00 PM39 °FScattered clouds.20 mph93%29.89 "HgN/A
11:30 AM39 °FRain showers. Partly sunny.29 mph87%29.86 "HgN/A
11:00 AM45 °FPartly sunny.24 mph66%29.86 "HgN/A
10:30 AM45 °FPartly sunny.21 mph76%29.86 "HgN/A
10:00 AM45 °FScattered clouds.20 mph76%29.83 "HgN/A
9:30 AM43 °FPassing clouds.12 mph87%29.83 "HgN/A
9:00 AM45 °FScattered clouds.21 mph76%29.80 "HgN/A
8:30 AM43 °FScattered clouds.20 mph76%29.80 "HgN/A
8:00 AM41 °FPassing clouds.18 mph87%29.77 "HgN/A
7:30 AM43 °FPassing clouds.21 mph81%29.77 "HgN/A
7:00 AM41 °FPassing clouds.21 mph87%29.77 "HgN/A
6:30 AM43 °FSprinkles. Partly cloudy.23 mph87%29.74 "HgN/A
6:00 AM43 °FSprinkles. Partly cloudy.21 mph87%29.74 "HgN/A
5:30 AM43 °FRain showers. Passing clouds.18 mph93%29.74 "Hg2 mi
4:30 AM43 °FSprinkles. Passing clouds.18 mph87%29.71 "HgN/A
4:00 AM41 °FSprinkles. Partly cloudy.17 mph93%29.71 "HgN/A
3:30 AM41 °FRain showers. Partly cloudy.18 mph93%29.74 "Hg2 mi
3:00 AM41 °FLight rain. Partly cloudy.20 mph87%29.74 "HgN/A
2:00 AM41 °FPartly cloudy.18 mph87%29.77 "HgN/A
1:30 AM41 °FLight rain. Partly cloudy.16 mph87%29.77 "HgN/A
1:00 AM39 °FLight rain. Partly cloudy.15 mph93%29.77 "HgN/A
11:30 PM
Sun, Nov 29
39 °FPartly cloudy.16 mph87%29.83 "HgN/A
11:00 PM39 °FMostly cloudy.16 mph87%29.83 "HgN/A
10:30 PM39 °FPartly cloudy.15 mph87%29.86 "HgN/A
10:00 PM39 °FPartly cloudy.15 mph87%29.86 "HgN/A
9:30 PM39 °FMostly cloudy.14 mph87%29.86 "HgN/A
9:00 PM39 °FMostly cloudy.14 mph87%29.86 "HgN/A
8:30 PM39 °FLight rain. Overcast.15 mph87%29.86 "HgN/A
8:00 PM39 °FLight rain. Passing clouds.14 mph81%29.89 "HgN/A
7:30 PM37 °FLight rain. Partly cloudy.14 mph87%29.89 "HgN/A
7:00 PM39 °FLight rain. Partly cloudy.15 mph81%29.89 "HgN/A
6:30 PM39 °FLight rain. Passing clouds.14 mph81%29.89 "HgN/A
6:00 PM37 °FLight rain. Passing clouds.14 mph87%29.89 "HgN/A
5:30 PM37 °FPassing clouds.13 mph81%29.89 "HgN/A
5:00 PM37 °FPassing clouds.13 mph81%29.89 "HgN/A
4:30 PM37 °FPartly cloudy.14 mph81%29.89 "HgN/A
4:00 PM37 °FPassing clouds.14 mph81%29.89 "HgN/A
3:30 PM37 °FScattered clouds.15 mph81%29.89 "HgN/A
3:00 PM37 °FPartly sunny.17 mph81%29.89 "HgN/A
2:30 PM39 °FPartly sunny.17 mph70%29.89 "HgN/A
2:00 PM39 °FBroken clouds.17 mph70%29.89 "HgN/A
1:30 PM39 °FPartly sunny.17 mph70%29.89 "HgN/A
1:00 PM39 °FPartly sunny.18 mph70%29.89 "HgN/A
Weather by CustomWeather, © 2015

See weather overviewHow to use our weather pages